Time,TemperatureF,DewpointF,PressureIn,WindDirection,WindDirectionDegrees,WindSpeedMPH,WindSpeedGustMPH,Humidity,HourlyPrecipIn,Conditions,Clouds,dailyrainin,SoftwareType,DateUTC
2013-02-12 00:00:00,32.2,28.5,29.69,SSW,202,4.0,-999.0,86,0.00,,,0.37,MetarLogicWeatherSta,2013-02-12 05:00:00,
2013-02-12 00:05:00,31.8,27.9,29.69,SSE,157,3.0,-999.0,85,0.00,,,0.00,MetarLogicWeatherSta,2013-02-12 05:05:00,
2013-02-12 00:10:00,31.8,28.0,29.69,SW,225,3.0,-999.0,85,0.00,,,0.00,MetarLogicWeatherSta,2013-02-12 05:10:00,
2013-02-12 00:15:00,32.0,27.9,29.69,SSW,202,6.0,-999.0,84,0.00,,,0.00,MetarLogicWeatherSta,2013-02-12 05:15:00,
2013-02-12 00:20:00,32.3,28.1,29.69,SSW,202,6.0,-999.0,84,0.00,,,0.00,MetarLogicWeatherSta,2013-02-12 05:20:00,
2013-02-12 00:25:00,32.2,27.5,29.69,South,180,6.0,-999.0,82,0.00,,,0.00,MetarLogicWeatherSta,2013-02-12 05:25:00,
2013-02-12 00:30:00,32.2,27.4,29.69,SW,225,10.0,-999.0,82,0.00,,,0.00,MetarLogicWeatherSta,2013-02-12 05:30:00,
2013-02-12 00:35:00,32.2,27.6,29.69,SW,225,6.0,-999.0,83,0.00,,,0.00,MetarLogicWeatherSta,2013-02-12 05:35:00,
2013-02-12 00:40:00,32.3,27.7,29.69,SSE,157,4.0,-999.0,83,0.00,,,0.00,MetarLogicWeatherSta,2013-02-12 05:40:00,
2013-02-12 00:45:00,32.2,27.9,29.69,SW,225,1.0,-999.0,83,0.00,,,0.00,MetarLogicWeatherSta,2013-02-12 05:45:00,
2013-02-12 00:50:00,32.0,27.6,29.69,SSE,157,1.0,-999.0,83,0.00,,,0.00,MetarLogicWeatherSta,2013-02-12 05:50:00,
2013-02-12 00:55:00,31.9,27.5,29.69,SSW,202,4.0,-999.0,83,0.00,,,0.00,MetarLogicWeatherSta,2013-02-12 05:55:00,
2013-02-12 01:00:00,31.9,27.4,29.69,WSW,247,6.0,-999.0,83,0.00,,,0.00,MetarLogicWeatherSta,2013-02-12 06:00:00,
2013-02-12 01:05:00,32.1,27.6,29.69,SSW,202,3.0,-999.0,83,0.00,,,0.00,MetarLogicWeatherSta,2013-02-12 06:05:00,
2013-02-12 01:10:00,32.1,27.5,29.69,South,180,4.0,-999.0,83,0.00,,,0.00,MetarLogicWeatherSta,2013-02-12 06:10:00,
2013-02-12 01:15:00,32.0,27.4,29.69,SSW,202,4.0,-999.0,83,0.00,,,0.00,MetarLogicWeatherSta,2013-02-12 06:15:00,
2013-02-12 01:20:00,32.1,27.5,29.69,SSW,202,4.0,-999.0,83,0.00,,,0.00,MetarLogicWeatherSta,2013-02-12 06:20:00,
2013-02-12 01:25:00,32.1,27.4,29.70,WSW,247,13.0,-999.0,82,0.00,,,0.00,MetarLogicWeatherSta,2013-02-12 06:25:00,
2013-02-12 01:30:00,32.3,27.5,29.70,SSE,157,1.0,-999.0,82,0.00,,,0.00,MetarLogicWeatherSta,2013-02-12 06:30:00,
2013-02-12 01:35:00,32.4,27.8,29.70,SW,225,3.0,-999.0,83,0.00,,,0.00,MetarLogicWeatherSta,2013-02-12 06:35:00,
2013-02-12 01:40:00,32.2,27.7,29.70,SW,225,7.0,-999.0,83,0.00,,,0.00,MetarLogicWeatherSta,2013-02-12 06:40:00,
2013-02-12 01:45:00,32.0,27.4,29.71,SSE,157,3.0,-999.0,83,0.00,,,0.00,MetarLogicWeatherSta,2013-02-12 06:45:00,
2013-02-12 01:50:00,32.2,27.7,29.71,WSW,247,3.0,-999.0,83,0.00,,,0.00,MetarLogicWeatherSta,2013-02-12 06:50:00,
2013-02-12 01:55:00,32.1,27.5,29.71,SW,225,6.0,-999.0,82,0.00,,,0.00,MetarLogicWeatherSta,2013-02-12 06:55:00,
2013-02-12 02:00:00,32.1,27.5,29.71,SSW,202,3.0,-999.0,83,0.00,,,0.00,MetarLogicWeatherSta,2013-02-12 07:00:00,
2013-02-12 02:05:00,31.9,27.3,29.71,SSW,202,3.0,-999.0,82,0.00,,,0.00,MetarLogicWeatherSta,2013-02-12 07:05:00,
2013-02-12 02:10:00,32.0,27.4,29.72,South,180,4.0,-999.0,83,0.00,,,0.00,MetarLogicWeatherSta,2013-02-12 07:10:00,
2013-02-12 02:15:00,32.5,28.0,29.72,WSW,247,1.0,-999.0,83,0.00,,,0.00,MetarLogicWeatherSta,2013-02-12 07:15:00,
2013-02-12 02:20:00,32.1,27.6,29.72,SW,225,4.0,-999.0,83,0.00,,,0.00,MetarLogicWeatherSta,2013-02-12 07:20:00,
2013-02-12 02:25:00,32.1,27.6,29.73,SW,225,4.0,-999.0,83,0.00,,,0.00,MetarLogicWeatherSta,2013-02-12 07:25:00,
2013-02-12 02:30:00,32.1,27.7,29.73,South,180,1.0,-999.0,83,0.00,,,0.00,MetarLogicWeatherSta,2013-02-12 07:30:00,
2013-02-12 02:35:00,32.1,27.9,29.73,South,180,4.0,-999.0,84,0.00,,,0.00,MetarLogicWeatherSta,2013-02-12 07:35:00,
2013-02-12 02:40:00,31.9,27.8,29.73,South,180,3.0,-999.0,84,0.00,,,0.00,MetarLogicWeatherSta,2013-02-12 07:40:00,
2013-02-12 02:45:00,32.0,27.8,29.73,SSW,202,4.0,-999.0,84,0.00,,,0.00,MetarLogicWeatherSta,2013-02-12 07:45:00,
2013-02-12 02:50:00,31.8,27.9,29.73,SSW,202,4.0,-999.0,85,0.00,,,0.00,MetarLogicWeatherSta,2013-02-12 07:50:00,
2013-02-12 02:55:00,31.8,27.9,29.73,SW,225,3.0,-999.0,85,0.00,,,0.00,MetarLogicWeatherSta,2013-02-12 07:55:00,
2013-02-12 03:00:00,31.7,27.8,29.73,SSE,157,1.0,-999.0,85,0.00,,,0.00,MetarLogicWeatherSta,2013-02-12 08:00:00,
2013-02-12 03:05:00,31.7,27.9,29.73,SW,225,3.0,-999.0,85,0.00,,,0.00,MetarLogicWeatherSta,2013-02-12 08:05:00,
2013-02-12 03:10:00,31.7,28.3,29.73,South,180,1.0,-999.0,87,0.00,,,0.00,MetarLogicWeatherSta,2013-02-12 08:10:00,
2013-02-12 03:15:00,31.6,28.5,29.73,SSW,202,4.0,-999.0,88,0.00,,,0.00,MetarLogicWeatherSta,2013-02-12 08:15:00,
2013-02-12 03:20:00,31.4,28.6,29.73,SSW,202,4.0,-999.0,89,0.00,,,0.00,MetarLogicWeatherSta,2013-02-12 08:20:00,
2013-02-12 03:25:00,31.3,28.4,29.74,SW,225,4.0,-999.0,89,0.00,,,0.00,MetarLogicWeatherSta,2013-02-12 08:25:00,
2013-02-12 03:30:00,31.2,28.2,29.75,South,180,1.0,-999.0,88,0.00,,,0.00,MetarLogicWeatherSta,2013-02-12 08:30:00,
2013-02-12 03:35:00,31.2,28.2,29.74,SSE,157,4.0,-999.0,88,0.00,,,0.00,MetarLogicWeatherSta,2013-02-12 08:35:00,
2013-02-12 03:40:00,31.2,28.3,29.74,SSW,202,0.0,-999.0,88,0.00,,,0.00,MetarLogicWeatherSta,2013-02-12 08:40:00,
2013-02-12 03:45:00,31.1,28.4,29.74,SSW,202,1.0,-999.0,89,0.00,,,0.00,MetarLogicWeatherSta,2013-02-12 08:45:00,
2013-02-12 03:50:00,31.2,28.1,29.74,SSW,202,1.0,-999.0,88,0.00,,,0.00,MetarLogicWeatherSta,2013-02-12 08:50:00,
2013-02-12 03:55:00,31.3,28.3,29.74,SSW,202,4.0,-999.0,88,0.00,,,0.00,MetarLogicWeatherSta,2013-02-12 08:55:00,
2013-02-12 04:00:00,31.2,28.3,29.75,SW,225,3.0,-999.0,89,0.00,,,0.00,MetarLogicWeatherSta,2013-02-12 09:00:00,
2013-02-12 04:05:00,30.9,27.7,29.75,SSW,202,4.0,-999.0,87,0.00,,,0.00,MetarLogicWeatherSta,2013-02-12 09:05:00,
2013-02-12 04:10:00,31.5,28.1,29.75,SW,225,3.0,-999.0,87,0.00,,,0.00,MetarLogicWeatherSta,2013-02-12 09:10:00,
2013-02-12 04:15:00,31.3,27.9,29.75,SW,225,6.0,-999.0,87,0.00,,,0.00,MetarLogicWeatherSta,2013-02-12 09:15:00,
2013-02-12 04:20:00,31.5,28.0,29.76,SW,225,3.0,-999.0,86,0.00,,,0.00,MetarLogicWeatherSta,2013-02-12 09:20:00,
2013-02-12 04:25:00,31.5,28.1,29.76,SW,225,6.0,-999.0,87,0.00,,,0.00,MetarLogicWeatherSta,2013-02-12 09:25:00,
2013-02-12 04:30:00,31.5,27.7,29.76,SW,225,10.0,-999.0,85,0.00,,,0.00,MetarLogicWeatherSta,2013-02-12 09:30:00,
2013-02-12 04:35:00,31.5,28.2,29.77,South,180,4.0,-999.0,87,0.00,,,0.00,MetarLogicWeatherSta,2013-02-12 09:35:00,
2013-02-12 04:40:00,31.4,28.1,29.77,SSW,202,4.0,-999.0,87,0.00,,,0.00,MetarLogicWeatherSta,2013-02-12 09:40:00,
2013-02-12 04:45:00,31.1,28.1,29.77,SSW,202,7.0,-999.0,88,0.00,,,0.00,MetarLogicWeatherSta,2013-02-12 09:45:00,
2013-02-12 04:50:00,31.1,27.6,29.77,SSW,202,4.0,-999.0,86,0.00,,,0.00,MetarLogicWeatherSta,2013-02-12 09:50:00,
2013-02-12 04:55:00,31.3,28.0,29.77,SSW,202,1.0,-999.0,87,0.00,,,0.00,MetarLogicWeatherSta,2013-02-12 09:55:00,
2013-02-12 05:00:00,31.2,28.2,29.77,SW,225,1.0,-999.0,88,0.00,,,0.00,MetarLogicWeatherSta,2013-02-12 10:00:00,
2013-02-12 05:05:00,31.2,28.2,29.78,South,180,4.0,-999.0,88,0.00,,,0.00,MetarLogicWeatherSta,2013-02-12 10:05:00,
2013-02-12 05:10:00,31.3,28.0,29.78,SSW,202,3.0,-999.0,87,0.00,,,0.00,MetarLogicWeatherSta,2013-02-12 10:10:00,
2013-02-12 05:15:00,31.2,27.4,29.78,SSW,202,4.0,-999.0,85,0.00,,,0.00,MetarLogicWeatherSta,2013-02-12 10:15:00,
2013-02-12 05:20:00,31.5,28.0,29.78,SW,225,6.0,-999.0,86,0.00,,,0.00,MetarLogicWeatherSta,2013-02-12 10:20:00,
2013-02-12 05:25:00,31.5,27.8,29.78,WSW,247,3.0,-999.0,85,0.00,,,0.00,MetarLogicWeatherSta,2013-02-12 10:25:00,
2013-02-12 05:30:00,31.6,27.8,29.78,SSW,202,4.0,-999.0,85,0.00,,,0.00,MetarLogicWeatherSta,2013-02-12 10:30:00,
2013-02-12 05:35:00,31.4,27.6,29.79,SSE,157,1.0,-999.0,85,0.00,,,0.00,MetarLogicWeatherSta,2013-02-12 10:35:00,
2013-02-12 05:40:00,31.6,27.9,29.79,SSW,202,6.0,-999.0,86,0.00,,,0.00,MetarLogicWeatherSta,2013-02-12 10:40:00,
2013-02-12 05:45:00,31.4,27.5,29.79,SW,225,9.0,-999.0,85,0.00,,,0.00,MetarLogicWeatherSta,2013-02-12 10:45:00,
2013-02-12 05:50:00,31.4,27.3,29.78,South,180,1.0,-999.0,84,0.00,,,0.00,MetarLogicWeatherSta,2013-02-12 10:50:00,
2013-02-12 05:55:00,31.7,27.6,29.78,SW,225,6.0,-999.0,84,0.00,,,0.00,MetarLogicWeatherSta,2013-02-12 10:55:00,
2013-02-12 06:00:00,31.7,27.6,29.79,SW,225,4.0,-999.0,84,0.00,,,0.00,MetarLogicWeatherSta,2013-02-12 11:00:00,
2013-02-12 06:05:00,31.7,27.5,29.79,SSW,202,3.0,-999.0,84,0.00,,,0.00,MetarLogicWeatherSta,2013-02-12 11:05:00,
2013-02-12 06:10:00,31.6,27.3,29.80,SSW,202,7.0,-999.0,84,0.00,,,0.00,MetarLogicWeatherSta,2013-02-12 11:10:00,
2013-02-12 06:15:00,31.7,27.3,29.80,SSW,202,4.0,-999.0,83,0.00,,,0.00,MetarLogicWeatherSta,2013-02-12 11:15:00,
2013-02-12 06:20:00,31.7,27.4,29.80,SW,225,4.0,-999.0,84,0.00,,,0.00,MetarLogicWeatherSta,2013-02-12 11:20:00,
2013-02-12 06:25:00,31.7,27.4,29.80,SSW,202,4.0,-999.0,83,0.00,,,0.00,MetarLogicWeatherSta,2013-02-12 11:25:00,
2013-02-12 06:30:00,31.7,27.4,29.80,SSW,202,3.0,-999.0,84,0.00,,,0.00,MetarLogicWeatherSta,2013-02-12 11:30:00,
2013-02-12 06:35:00,31.6,27.5,29.80,SSW,202,3.0,-999.0,84,0.00,,,0.00,MetarLogicWeatherSta,2013-02-12 11:35:00,
2013-02-12 06:40:00,31.8,27.5,29.80,SSW,202,6.0,-999.0,84,0.00,,,0.00,MetarLogicWeatherSta,2013-02-12 11:40:00,
2013-02-12 06:45:00,31.8,27.4,29.81,SW,225,4.0,-999.0,83,0.00,,,0.00,MetarLogicWeatherSta,2013-02-12 11:45:00,
2013-02-12 06:50:00,31.7,27.2,29.80,SW,225,3.0,-999.0,83,0.00,,,0.00,MetarLogicWeatherSta,2013-02-12 11:50:00,
2013-02-12 06:55:00,31.7,27.0,29.80,WSW,247,3.0,-999.0,82,0.00,,,0.00,MetarLogicWeatherSta,2013-02-12 11:55:00,
2013-02-12 07:00:00,31.8,27.2,29.81,SSW,202,3.0,-999.0,82,0.00,,,0.00,MetarLogicWeatherSta,2013-02-12 12:00:00,
2013-02-12 07:05:00,31.8,27.0,29.82,SSW,202,4.0,-999.0,82,0.00,,,0.00,MetarLogicWeatherSta,2013-02-12 12:05:00,
2013-02-12 07:10:00,31.9,27.0,29.82,SW,225,9.0,-999.0,82,0.00,,,0.00,MetarLogicWeatherSta,2013-02-12 12:10:00,
2013-02-12 07:15:00,31.9,27.0,29.82,WSW,247,3.0,-999.0,82,0.00,,,0.00,MetarLogicWeatherSta,2013-02-12 12:15:00,
2013-02-12 07:20:00,31.9,26.9,29.82,SSW,202,3.0,-999.0,81,0.00,,,0.00,MetarLogicWeatherSta,2013-02-12 12:20:00,
2013-02-12 07:25:00,31.9,26.8,29.82,SSW,202,6.0,-999.0,81,0.00,,,0.00,MetarLogicWeatherSta,2013-02-12 12:25:00,
2013-02-12 07:30:00,32.0,26.7,29.83,SW,225,7.0,-999.0,80,0.00,,,0.00,MetarLogicWeatherSta,2013-02-12 12:30:00,
2013-02-12 07:35:00,31.8,26.6,29.82,SSW,202,7.0,-999.0,81,0.00,,,0.00,MetarLogicWeatherSta,2013-02-12 12:35:00,
2013-02-12 07:40:00,31.9,26.7,29.82,SW,225,7.0,-999.0,80,0.00,,,0.00,MetarLogicWeatherSta,2013-02-12 12:40:00,
2013-02-12 07:45:00,31.9,26.8,29.83,East,90,3.0,-999.0,81,0.00,,,0.00,MetarLogicWeatherSta,2013-02-12 12:45:00,
2013-02-12 07:50:00,31.9,26.6,29.84,WSW,247,6.0,-999.0,80,0.00,,,0.00,MetarLogicWeatherSta,2013-02-12 12:50:00,
2013-02-12 07:55:00,31.8,26.5,29.84,South,180,4.0,-999.0,80,0.00,,,0.00,MetarLogicWeatherSta,2013-02-12 12:55:00,
2013-02-12 08:00:00,31.9,26.6,29.84,SSW,202,3.0,-999.0,80,0.00,,,0.00,MetarLogicWeatherSta,2013-02-12 13:00:00,
2013-02-12 08:05:00,32.1,26.7,29.84,SW,225,10.0,-999.0,80,0.00,,,0.00,MetarLogicWeatherSta,2013-02-12 13:05:00,
2013-02-12 08:10:00,31.8,26.7,29.84,SSW,202,7.0,-999.0,81,0.00,,,0.00,MetarLogicWeatherSta,2013-02-12 13:10:00,
2013-02-12 08:15:00,32.1,26.6,29.84,SW,225,4.0,-999.0,80,0.00,,,0.00,MetarLogicWeatherSta,2013-02-12 13:15:00,
2013-02-12 08:20:00,32.2,26.7,29.85,SW,225,7.0,-999.0,80,0.00,,,0.00,MetarLogicWeatherSta,2013-02-12 13:20:00,
2013-02-12 08:25:00,32.1,26.4,29.86,SSW,202,1.0,-999.0,79,0.00,,,0.00,MetarLogicWeatherSta,2013-02-12 13:25:00,
2013-02-12 08:30:00,32.1,26.4,29.86,WSW,247,7.0,-999.0,79,0.00,,,0.00,MetarLogicWeatherSta,2013-02-12 13:30:00,
2013-02-12 08:35:00,32.2,26.5,29.86,SSW,202,4.0,-999.0,79,0.00,,,0.00,MetarLogicWeatherSta,2013-02-12 13:35:00,
2013-02-12 08:40:00,32.3,26.6,29.86,SSE,157,1.0,-999.0,79,0.00,,,0.00,MetarLogicWeatherSta,2013-02-12 13:40:00,
2013-02-12 08:45:00,32.3,26.5,29.86,SSW,202,3.0,-999.0,79,0.00,,,0.00,MetarLogicWeatherSta,2013-02-12 13:45:00,
2013-02-12 08:50:00,32.3,26.5,29.86,SW,225,4.0,-999.0,79,0.00,,,0.00,MetarLogicWeatherSta,2013-02-12 13:50:00,
2013-02-12 08:55:00,32.3,26.5,29.87,SSW,202,1.0,-999.0,79,0.00,,,0.00,MetarLogicWeatherSta,2013-02-12 13:55:00,
2013-02-12 09:00:00,32.6,26.8,29.86,South,180,1.0,-999.0,79,0.00,,,0.00,MetarLogicWeatherSta,2013-02-12 14:00:00,
2013-02-12 09:05:00,32.7,26.6,29.87,SSE,157,3.0,-999.0,78,0.00,,,0.00,MetarLogicWeatherSta,2013-02-12 14:05:00,
2013-02-12 09:10:00,32.6,26.5,29.86,SW,225,6.0,-999.0,78,0.00,,,0.00,MetarLogicWeatherSta,2013-02-12 14:10:00,
2013-02-12 09:15:00,32.8,26.8,29.86,SW,225,4.0,-999.0,78,0.00,,,0.00,MetarLogicWeatherSta,2013-02-12 14:15:00,
2013-02-12 09:20:00,32.6,26.4,29.87,SSW,202,4.0,-999.0,77,0.00,,,0.00,MetarLogicWeatherSta,2013-02-12 14:20:00,
2013-02-12 09:25:00,32.6,26.4,29.87,WSW,247,7.0,-999.0,77,0.00,,,0.00,MetarLogicWeatherSta,2013-02-12 14:25:00,
2013-02-12 09:30:00,32.7,26.4,29.88,SW,225,7.0,-999.0,77,0.00,,,0.00,MetarLogicWeatherSta,2013-02-12 14:30:00,
2013-02-12 09:35:00,32.7,26.5,29.88,SW,225,4.0,-999.0,77,0.00,,,0.00,MetarLogicWeatherSta,2013-02-12 14:35:00,
2013-02-12 09:40:00,32.7,26.5,29.88,WSW,247,3.0,-999.0,77,0.00,,,0.00,MetarLogicWeatherSta,2013-02-12 14:40:00,
2013-02-12 09:45:00,32.6,26.1,29.88,South,180,0.0,-999.0,77,0.00,,,0.00,MetarLogicWeatherSta,2013-02-12 14:45:00,
2013-02-12 09:50:00,32.7,26.3,29.88,SW,225,4.0,-999.0,77,0.00,,,0.00,MetarLogicWeatherSta,2013-02-12 14:50:00,
2013-02-12 09:55:00,32.7,26.2,29.88,WSW,247,12.0,-999.0,77,0.00,,,0.00,MetarLogicWeatherSta,2013-02-12 14:55:00,
2013-02-12 10:00:00,32.7,26.1,29.89,SW,225,3.0,-999.0,76,0.00,,,0.00,MetarLogicWeatherSta,2013-02-12 15:00:00,
2013-02-12 10:05:00,33.0,26.4,29.89,South,180,3.0,-999.0,76,0.00,,,0.00,MetarLogicWeatherSta,2013-02-12 15:05:00,
2013-02-12 10:10:00,32.7,26.0,29.89,NNE,22,1.0,-999.0,76,0.00,,,0.00,MetarLogicWeatherSta,2013-02-12 15:10:00,
2013-02-12 10:15:00,32.7,25.7,29.89,SW,225,6.0,-999.0,75,0.00,,,0.00,MetarLogicWeatherSta,2013-02-12 15:15:00,
2013-02-12 10:20:00,33.0,26.0,29.89,SSW,202,1.0,-999.0,75,0.00,,,0.00,MetarLogicWeatherSta,2013-02-12 15:20:00,
2013-02-12 10:25:00,32.9,25.7,29.89,SW,225,4.0,-999.0,74,0.00,,,0.00,MetarLogicWeatherSta,2013-02-12 15:25:00,
2013-02-12 10:30:00,33.2,25.8,29.90,SSW,202,4.0,-999.0,74,0.00,,,0.00,MetarLogicWeatherSta,2013-02-12 15:30:00,
2013-02-12 10:35:00,33.2,25.6,29.89,SSW,202,3.0,-999.0,73,0.00,,,0.00,MetarLogicWeatherSta,2013-02-12 15:35:00,
2013-02-12 10:40:00,33.7,26.1,29.89,WSW,247,6.0,-999.0,73,0.00,,,0.00,MetarLogicWeatherSta,2013-02-12 15:40:00,
2013-02-12 10:45:00,33.9,26.1,29.90,South,180,3.0,-999.0,73,0.00,,,0.00,MetarLogicWeatherSta,2013-02-12 15:45:00,
2013-02-12 10:50:00,33.9,26.1,29.90,West,270,4.0,-999.0,72,0.00,,,0.00,MetarLogicWeatherSta,2013-02-12 15:50:00,
2013-02-12 10:55:00,33.9,25.8,29.89,SSW,202,4.0,-999.0,72,0.00,,,0.00,MetarLogicWeatherSta,2013-02-12 15:55:00,
2013-02-12 11:00:00,34.0,26.0,29.89,SSE,157,4.0,-999.0,72,0.00,,,0.00,MetarLogicWeatherSta,2013-02-12 16:00:00,
2013-02-12 11:05:00,34.2,26.0,29.90,SSW,202,7.0,-999.0,71,0.00,,,0.00,MetarLogicWeatherSta,2013-02-12 16:05:00,
2013-02-12 11:10:00,34.1,26.3,29.90,SSW,202,4.0,-999.0,72,0.00,,,0.00,MetarLogicWeatherSta,2013-02-12 16:10:00,
2013-02-12 11:15:00,33.7,25.6,29.90,SW,225,10.0,-999.0,71,0.00,,,0.00,MetarLogicWeatherSta,2013-02-12 16:15:00,
2013-02-12 11:20:00,33.6,25.7,29.90,South,180,6.0,-999.0,72,0.00,,,0.00,MetarLogicWeatherSta,2013-02-12 16:20:00,
2013-02-12 11:25:00,33.6,25.7,29.90,SSW,202,6.0,-999.0,72,0.00,,,0.00,MetarLogicWeatherSta,2013-02-12 16:25:00,
2013-02-12 11:30:00,33.5,25.6,29.90,SSW,202,1.0,-999.0,72,0.00,,,0.00,MetarLogicWeatherSta,2013-02-12 16:30:00,
2013-02-12 11:35:00,33.2,25.5,29.91,SSE,157,0.0,-999.0,73,0.00,,,0.00,MetarLogicWeatherSta,2013-02-12 16:35:00,
2013-02-12 11:40:00,33.5,25.8,29.91,SSW,202,6.0,-999.0,73,0.00,,,0.00,MetarLogicWeatherSta,2013-02-12 16:40:00,
2013-02-12 11:45:00,33.4,25.7,29.91,SSW,202,6.0,-999.0,73,0.00,,,0.00,MetarLogicWeatherSta,2013-02-12 16:45:00,
2013-02-12 11:50:00,33.3,25.8,29.91,SW,225,9.0,-999.0,73,0.00,,,0.00,MetarLogicWeatherSta,2013-02-12 16:50:00,
2013-02-12 11:55:00,33.3,25.8,29.91,SW,225,1.0,-999.0,73,0.00,,,0.00,MetarLogicWeatherSta,2013-02-12 16:55:00,
2013-02-12 12:00:00,33.2,25.7,29.91,South,180,1.0,-999.0,73,0.00,,,0.00,MetarLogicWeatherSta,2013-02-12 17:00:00,
2013-02-12 12:05:00,33.6,26.1,29.91,SSW,202,1.0,-999.0,73,0.00,,,0.00,MetarLogicWeatherSta,2013-02-12 17:05:00,
2013-02-12 12:10:00,33.7,25.7,29.91,SW,225,7.0,-999.0,72,0.00,,,0.00,MetarLogicWeatherSta,2013-02-12 17:10:00,
2013-02-12 12:15:00,34.0,26.0,29.91,South,180,4.0,-999.0,72,0.00,,,0.00,MetarLogicWeatherSta,2013-02-12 17:15:00,
2013-02-12 12:20:00,33.9,25.7,29.91,WSW,247,6.0,-999.0,71,0.00,,,0.00,MetarLogicWeatherSta,2013-02-12 17:20:00,
2013-02-12 12:25:00,33.8,25.6,29.91,WSW,247,7.0,-999.0,71,0.00,,,0.00,MetarLogicWeatherSta,2013-02-12 17:25:00,
2013-02-12 12:30:00,33.7,26.0,29.91,SSW,202,4.0,-999.0,73,0.00,,,0.00,MetarLogicWeatherSta,2013-02-12 17:30:00,
2013-02-12 12:35:00,33.5,25.5,29.91,SW,225,6.0,-999.0,72,0.00,,,0.00,MetarLogicWeatherSta,2013-02-12 17:35:00,
2013-02-12 12:40:00,33.4,25.5,29.92,SW,225,7.0,-999.0,72,0.00,,,0.00,MetarLogicWeatherSta,2013-02-12 17:40:00,
2013-02-12 12:45:00,33.2,25.3,29.92,SW,225,7.0,-999.0,72,0.00,,,0.00,MetarLogicWeatherSta,2013-02-12 17:45:00,
2013-02-12 12:50:00,33.0,25.2,29.91,SSE,157,3.0,-999.0,72,0.00,,,0.00,MetarLogicWeatherSta,2013-02-12 17:50:00,
2013-02-12 12:55:00,32.8,25.1,29.92,SW,225,7.0,-999.0,72,0.00,,,0.00,MetarLogicWeatherSta,2013-02-12 17:55:00,
2013-02-12 13:00:00,32.8,25.2,29.91,SW,225,3.0,-999.0,73,0.00,,,0.00,MetarLogicWeatherSta,2013-02-12 18:00:00,
2013-02-12 13:05:00,33.1,24.8,29.92,SW,225,7.0,-999.0,71,0.00,,,0.00,MetarLogicWeatherSta,2013-02-12 18:05:00,
2013-02-12 13:10:00,32.8,24.9,29.91,South,180,4.0,-999.0,72,0.00,,,0.00,MetarLogicWeatherSta,2013-02-12 18:10:00,
2013-02-12 13:15:00,33.0,25.1,29.91,SW,225,4.0,-999.0,72,0.00,,,0.00,MetarLogicWeatherSta,2013-02-12 18:15:00,
2013-02-12 13:20:00,32.9,25.1,29.91,SSW,202,4.0,-999.0,72,0.00,,,0.00,MetarLogicWeatherSta,2013-02-12 18:20:00,
2013-02-12 13:25:00,32.8,24.9,29.91,SW,225,1.0,-999.0,72,0.00,,,0.00,MetarLogicWeatherSta,2013-02-12 18:25:00,
2013-02-12 13:30:00,33.0,24.9,29.90,SW,225,4.0,-999.0,71,0.00,,,0.00,MetarLogicWeatherSta,2013-02-12 18:30:00,
2013-02-12 13:35:00,32.8,24.7,29.91,SSW,202,4.0,-999.0,71,0.00,,,0.00,MetarLogicWeatherSta,2013-02-12 18:35:00,
2013-02-12 13:40:00,32.7,24.4,29.90,SSW,202,0.0,-999.0,71,0.00,,,0.00,MetarLogicWeatherSta,2013-02-12 18:40:00,
2013-02-12 13:45:00,32.8,24.8,29.90,SSW,202,1.0,-999.0,71,0.00,,,0.00,MetarLogicWeatherSta,2013-02-12 18:45:00,
2013-02-12 13:50:00,32.9,24.9,29.90,SW,225,3.0,-999.0,72,0.00,,,0.00,MetarLogicWeatherSta,2013-02-12 18:50:00,
2013-02-12 13:55:00,33.0,24.9,29.89,SW,225,1.0,-999.0,71,0.00,,,0.00,MetarLogicWeatherSta,2013-02-12 18:55:00,
2013-02-12 14:00:00,33.0,24.7,29.88,SSW,202,4.0,-999.0,71,0.00,,,0.00,MetarLogicWeatherSta,2013-02-12 19:00:00,
2013-02-12 14:05:00,33.0,25.0,29.88,SW,225,0.0,-999.0,72,0.00,,,0.00,MetarLogicWeatherSta,2013-02-12 19:05:00,
2013-02-12 14:10:00,33.1,25.4,29.88,WSW,247,1.0,-999.0,73,0.00,,,0.00,MetarLogicWeatherSta,2013-02-12 19:10:00,
2013-02-12 14:15:00,33.1,24.9,29.89,South,180,1.0,-999.0,71,0.00,,,0.00,MetarLogicWeatherSta,2013-02-12 19:15:00,
2013-02-12 14:20:00,33.1,24.8,29.89,SW,225,4.0,-999.0,71,0.00,,,0.00,MetarLogicWeatherSta,2013-02-12 19:20:00,
2013-02-12 14:25:00,33.0,24.7,29.90,SSW,202,4.0,-999.0,71,0.00,,,0.00,MetarLogicWeatherSta,2013-02-12 19:25:00,
2013-02-12 14:30:00,32.7,24.5,29.89,SW,225,6.0,-999.0,71,0.00,,,0.00,MetarLogicWeatherSta,2013-02-12 19:30:00,
2013-02-12 14:35:00,32.6,24.9,29.90,SSW,202,0.0,-999.0,72,0.00,,,0.00,MetarLogicWeatherSta,2013-02-12 19:35:00,
2013-02-12 14:40:00,32.7,24.7,29.90,South,180,0.0,-999.0,72,0.00,,,0.00,MetarLogicWeatherSta,2013-02-12 19:40:00,
2013-02-12 14:45:00,32.6,24.3,29.89,SW,225,4.0,-999.0,71,0.00,,,0.00,MetarLogicWeatherSta,2013-02-12 19:45:00,
2013-02-12 14:50:00,32.6,24.3,29.89,SW,225,6.0,-999.0,71,0.00,,,0.00,MetarLogicWeatherSta,2013-02-12 19:50:00,
2013-02-12 14:55:00,32.7,23.8,29.88,SW,225,4.0,-999.0,69,0.00,,,0.00,MetarLogicWeatherSta,2013-02-12 19:55:00,
2013-02-12 15:00:00,32.4,24.1,29.88,SSE,157,0.0,-999.0,71,0.00,,,0.00,MetarLogicWeatherSta,2013-02-12 20:00:00,
2013-02-12 15:05:00,32.6,24.0,29.88,South,180,1.0,-999.0,70,0.00,,,0.00,MetarLogicWeatherSta,2013-02-12 20:05:00,
2013-02-12 15:10:00,32.7,24.0,29.88,SE,135,0.0,-999.0,69,0.00,,,0.00,MetarLogicWeatherSta,2013-02-12 20:10:00,
2013-02-12 15:15:00,32.9,24.0,29.88,SW,225,3.0,-999.0,69,0.00,,,0.00,MetarLogicWeatherSta,2013-02-12 20:15:00,
2013-02-12 15:20:00,32.8,23.7,29.88,SW,225,4.0,-999.0,68,0.00,,,0.00,MetarLogicWeatherSta,2013-02-12 20:20:00,
2013-02-12 15:25:00,32.7,23.0,29.88,SW,225,3.0,-999.0,67,0.00,,,0.00,MetarLogicWeatherSta,2013-02-12 20:25:00,
2013-02-12 15:30:00,32.3,23.0,29.87,SW,225,4.0,-999.0,68,0.00,,,0.00,MetarLogicWeatherSta,2013-02-12 20:30:00,
2013-02-12 15:35:00,32.2,23.5,29.88,SW,225,6.0,-999.0,69,0.00,,,0.00,MetarLogicWeatherSta,2013-02-12 20:35:00,
2013-02-12 15:40:00,32.1,23.6,29.88,SW,225,3.0,-999.0,70,0.00,,,0.00,MetarLogicWeatherSta,2013-02-12 20:40:00,
2013-02-12 15:45:00,31.9,23.2,29.88,South,180,3.0,-999.0,70,0.00,,,0.00,MetarLogicWeatherSta,2013-02-12 20:45:00,
2013-02-12 15:50:00,31.8,23.2,29.87,SW,225,3.0,-999.0,70,0.00,,,0.00,MetarLogicWeatherSta,2013-02-12 20:50:00,
2013-02-12 15:55:00,31.6,23.1,29.87,SW,225,3.0,-999.0,70,0.00,,,0.00,MetarLogicWeatherSta,2013-02-12 20:55:00,
2013-02-12 16:00:00,31.4,23.1,29.87,SW,225,7.0,-999.0,71,0.00,,,0.00,MetarLogicWeatherSta,2013-02-12 21:00:00,
2013-02-12 16:05:00,31.5,23.5,29.87,SSW,202,4.0,-999.0,72,0.00,,,0.00,MetarLogicWeatherSta,2013-02-12 21:05:00,
2013-02-12 16:10:00,31.3,23.6,29.87,SW,225,4.0,-999.0,72,0.00,,,0.00,MetarLogicWeatherSta,2013-02-12 21:10:00,
2013-02-12 16:15:00,31.2,23.4,29.87,SW,225,4.0,-999.0,72,0.00,,,0.00,MetarLogicWeatherSta,2013-02-12 21:15:00,
2013-02-12 16:20:00,31.0,23.5,29.87,SW,225,3.0,-999.0,73,0.00,,,0.00,MetarLogicWeatherSta,2013-02-12 21:20:00,
2013-02-12 16:25:00,31.2,23.9,29.88,South,180,1.0,-999.0,74,0.00,,,0.00,MetarLogicWeatherSta,2013-02-12 21:25:00,
2013-02-12 16:30:00,31.0,23.5,29.88,SSW,202,3.0,-999.0,73,0.00,,,0.00,MetarLogicWeatherSta,2013-02-12 21:30:00,
2013-02-12 16:35:00,31.0,23.5,29.88,SSW,202,0.0,-999.0,73,0.00,,,0.00,MetarLogicWeatherSta,2013-02-12 21:35:00,
2013-02-12 16:40:00,31.2,24.1,29.88,SSE,157,0.0,-999.0,74,0.00,,,0.00,MetarLogicWeatherSta,2013-02-12 21:40:00,
2013-02-12 16:45:00,31.0,24.3,29.88,SSW,202,3.0,-999.0,75,0.00,,,0.00,MetarLogicWeatherSta,2013-02-12 21:45:00,
2013-02-12 16:50:00,30.8,24.5,29.88,SSE,157,0.0,-999.0,77,0.00,,,0.00,MetarLogicWeatherSta,2013-02-12 21:50:00,
2013-02-12 16:55:00,30.6,24.6,29.88,SW,225,3.0,-999.0,78,0.00,,,0.00,MetarLogicWeatherSta,2013-02-12 21:55:00,
2013-02-12 17:00:00,30.5,24.9,29.89,SSW,202,0.0,-999.0,79,0.00,,,0.00,MetarLogicWeatherSta,2013-02-12 22:00:00,
2013-02-12 17:05:00,30.2,24.7,29.89,South,180,0.0,-999.0,79,0.00,,,0.00,MetarLogicWeatherSta,2013-02-12 22:05:00,
2013-02-12 17:10:00,30.1,24.5,29.89,SSW,202,1.0,-999.0,79,0.00,,,0.00,MetarLogicWeatherSta,2013-02-12 22:10:00,
2013-02-12 17:15:00,30.1,24.6,29.90,SSE,157,1.0,-999.0,79,0.00,,,0.00,MetarLogicWeatherSta,2013-02-12 22:15:00,
2013-02-12 17:20:00,30.1,24.6,29.90,SSW,202,1.0,-999.0,79,0.00,,,0.00,MetarLogicWeatherSta,2013-02-12 22:20:00,
2013-02-12 17:25:00,30.1,24.8,29.90,SSW,202,0.0,-999.0,80,0.00,,,0.00,MetarLogicWeatherSta,2013-02-12 22:25:00,
2013-02-12 17:30:00,30.0,24.2,29.90,SSW,202,0.0,-999.0,78,0.00,,,0.00,MetarLogicWeatherSta,2013-02-12 22:30:00,
2013-02-12 17:35:00,30.1,24.3,29.91,SSW,202,0.0,-999.0,78,0.00,,,0.00,MetarLogicWeatherSta,2013-02-12 22:35:00,
2013-02-12 17:40:00,30.2,24.3,29.91,South,180,1.0,-999.0,78,0.00,,,0.00,MetarLogicWeatherSta,2013-02-12 22:40:00,
2013-02-12 17:45:00,30.0,24.0,29.91,South,180,0.0,-999.0,78,0.00,,,0.00,MetarLogicWeatherSta,2013-02-12 22:45:00,
2013-02-12 17:50:00,30.0,24.0,29.91,South,180,1.0,-999.0,78,0.00,,,0.00,MetarLogicWeatherSta,2013-02-12 22:50:00,
2013-02-12 17:55:00,30.2,24.4,29.91,SE,135,0.0,-999.0,78,0.00,,,0.00,MetarLogicWeatherSta,2013-02-12 22:55:00,
2013-02-12 18:00:00,30.1,24.2,29.90,SSE,157,0.0,-999.0,78,0.00,,,0.00,MetarLogicWeatherSta,2013-02-12 23:00:00,
2013-02-12 18:05:00,30.0,24.1,29.91,South,180,1.0,-999.0,78,0.00,,,0.00,MetarLogicWeatherSta,2013-02-12 23:05:00,
2013-02-12 18:10:00,30.1,24.3,29.91,SW,225,3.0,-999.0,78,0.00,,,0.00,MetarLogicWeatherSta,2013-02-12 23:10:00,
2013-02-12 18:15:00,29.9,24.3,29.92,South,180,0.0,-999.0,79,0.00,,,0.00,MetarLogicWeatherSta,2013-02-12 23:15:00,
2013-02-12 18:20:00,30.0,24.4,29.92,South,180,1.0,-999.0,79,0.00,,,0.00,MetarLogicWeatherSta,2013-02-12 23:20:00,
2013-02-12 18:25:00,29.9,24.3,29.92,SSE,157,4.0,-999.0,79,0.00,,,0.00,MetarLogicWeatherSta,2013-02-12 23:25:00,
2013-02-12 18:30:00,29.9,24.2,29.92,South,180,0.0,-999.0,79,0.00,,,0.00,MetarLogicWeatherSta,2013-02-12 23:30:00,
2013-02-12 18:35:00,30.0,24.1,29.92,SSW,202,0.0,-999.0,78,0.00,,,0.00,MetarLogicWeatherSta,2013-02-12 23:35:00,
2013-02-12 18:40:00,29.8,23.9,29.93,South,180,1.0,-999.0,78,0.00,,,0.00,MetarLogicWeatherSta,2013-02-12 23:40:00,
2013-02-12 18:45:00,30.1,24.1,29.93,SSE,157,0.0,-999.0,78,0.00,,,0.00,MetarLogicWeatherSta,2013-02-12 23:45:00,
2013-02-12 18:50:00,30.0,24.1,29.92,SW,225,0.0,-999.0,78,0.00,,,0.00,MetarLogicWeatherSta,2013-02-12 23:50:00,
2013-02-12 18:55:00,30.0,24.0,29.93,SSW,202,0.0,-999.0,78,0.00,,,0.00,MetarLogicWeatherSta,2013-02-12 23:55:00,
2013-02-12 19:00:00,30.0,23.9,29.94,South,180,1.0,-999.0,77,0.00,,,0.00,MetarLogicWeatherSta,2013-02-13 00:00:00,
2013-02-12 19:05:00,30.1,24.0,29.94,South,180,0.0,-999.0,77,0.00,,,0.00,MetarLogicWeatherSta,2013-02-13 00:05:00,
2013-02-12 19:10:00,30.0,24.1,29.94,South,180,0.0,-999.0,78,0.00,,,0.00,MetarLogicWeatherSta,2013-02-13 00:10:00,
2013-02-12 19:15:00,30.1,24.2,29.94,SSW,202,1.0,-999.0,78,0.00,,,0.00,MetarLogicWeatherSta,2013-02-13 00:15:00,
2013-02-12 19:20:00,30.1,24.2,29.94,South,180,0.0,-999.0,78,0.00,,,0.00,MetarLogicWeatherSta,2013-02-13 00:20:00,
2013-02-12 19:25:00,30.1,23.9,29.94,SW,225,1.0,-999.0,77,0.00,,,0.00,MetarLogicWeatherSta,2013-02-13 00:25:00,
2013-02-12 19:30:00,30.0,23.9,29.94,SSE,157,1.0,-999.0,77,0.00,,,0.00,MetarLogicWeatherSta,2013-02-13 00:30:00,
2013-02-12 19:35:00,30.3,23.9,29.94,SSE,157,1.0,-999.0,77,0.00,,,0.00,MetarLogicWeatherSta,2013-02-13 00:35:00,
2013-02-12 19:40:00,30.3,24.1,29.94,SW,225,1.0,-999.0,77,0.00,,,0.00,MetarLogicWeatherSta,2013-02-13 00:40:00,
2013-02-12 19:45:00,30.1,24.0,29.94,SSE,157,0.0,-999.0,77,0.00,,,0.00,MetarLogicWeatherSta,2013-02-13 00:45:00,
2013-02-12 19:50:00,30.1,23.8,29.95,South,180,0.0,-999.0,77,0.00,,,0.00,MetarLogicWeatherSta,2013-02-13 00:50:00,
2013-02-12 19:55:00,30.0,23.7,29.95,SSW,202,0.0,-999.0,77,0.00,,,0.00,MetarLogicWeatherSta,2013-02-13 00:55:00,
2013-02-12 20:00:00,30.3,23.7,29.95,SSE,157,0.0,-999.0,76,0.00,,,0.00,MetarLogicWeatherSta,2013-02-13 01:00:00,
2013-02-12 20:05:00,30.1,23.6,29.95,SW,225,1.0,-999.0,76,0.00,,,0.00,MetarLogicWeatherSta,2013-02-13 01:05:00,
2013-02-12 20:10:00,30.3,23.9,29.95,SW,225,1.0,-999.0,77,0.00,,,0.00,MetarLogicWeatherSta,2013-02-13 01:10:00,
2013-02-12 20:15:00,30.2,23.9,29.94,SSW,202,1.0,-999.0,77,0.00,,,0.00,MetarLogicWeatherSta,2013-02-13 01:15:00,
2013-02-12 20:20:00,30.2,24.1,29.94,SSE,157,0.0,-999.0,77,0.00,,,0.00,MetarLogicWeatherSta,2013-02-13 01:20:00,
2013-02-12 20:25:00,30.0,23.8,29.95,SSW,202,1.0,-999.0,77,0.00,,,0.00,MetarLogicWeatherSta,2013-02-13 01:25:00,
2013-02-12 20:30:00,30.1,24.0,29.94,South,180,0.0,-999.0,77,0.00,,,0.00,MetarLogicWeatherSta,2013-02-13 01:30:00,
2013-02-12 20:35:00,30.3,24.1,29.95,SW,225,1.0,-999.0,77,0.00,,,0.00,MetarLogicWeatherSta,2013-02-13 01:35:00,
2013-02-12 20:40:00,30.4,24.1,29.94,South,180,0.0,-999.0,77,0.00,,,0.00,MetarLogicWeatherSta,2013-02-13 01:40:00,
2013-02-12 20:45:00,30.4,24.0,29.94,SSW,202,0.0,-999.0,77,0.00,,,0.00,MetarLogicWeatherSta,2013-02-13 01:45:00,
2013-02-12 20:50:00,30.5,24.2,29.94,South,180,0.0,-999.0,77,0.00,,,0.00,MetarLogicWeatherSta,2013-02-13 01:50:00,
2013-02-12 20:55:00,30.4,24.0,29.94,SSW,202,1.0,-999.0,77,0.00,,,0.00,MetarLogicWeatherSta,2013-02-13 01:55:00,
2013-02-12 21:00:00,30.3,23.8,29.94,SSW,202,1.0,-999.0,76,0.00,,,0.00,MetarLogicWeatherSta,2013-02-13 02:00:00,
2013-02-12 21:05:00,30.3,24.0,29.94,South,180,0.0,-999.0,77,0.00,,,0.00,MetarLogicWeatherSta,2013-02-13 02:05:00,
2013-02-12 21:10:00,30.3,23.7,29.94,South,180,0.0,-999.0,76,0.00,,,0.00,MetarLogicWeatherSta,2013-02-13 02:10:00,
2013-02-12 21:15:00,30.4,23.7,29.93,SW,225,1.0,-999.0,76,0.00,,,0.00,MetarLogicWeatherSta,2013-02-13 02:15:00,
2013-02-12 21:20:00,30.5,24.0,29.93,SW,225,1.0,-999.0,76,0.00,,,0.00,MetarLogicWeatherSta,2013-02-13 02:20:00,
2013-02-12 21:25:00,30.4,23.7,29.93,South,180,0.0,-999.0,76,0.00,,,0.00,MetarLogicWeatherSta,2013-02-13 02:25:00,
2013-02-12 21:30:00,30.3,23.6,29.93,SSW,202,0.0,-999.0,76,0.00,,,0.00,MetarLogicWeatherSta,2013-02-13 02:30:00,
2013-02-12 21:35:00,30.5,24.1,29.92,SSW,202,1.0,-999.0,76,0.00,,,0.00,MetarLogicWeatherSta,2013-02-13 02:35:00,
2013-02-12 21:40:00,30.4,23.5,29.92,SW,225,3.0,-999.0,75,0.00,,,0.00,MetarLogicWeatherSta,2013-02-13 02:40:00,
2013-02-12 21:45:00,30.5,24.1,29.92,SSW,202,1.0,-999.0,76,0.00,,,0.00,MetarLogicWeatherSta,2013-02-13 02:45:00,
2013-02-12 21:50:00,30.3,23.9,29.92,SW,225,3.0,-999.0,76,0.00,,,0.00,MetarLogicWeatherSta,2013-02-13 02:50:00,
2013-02-12 21:55:00,30.3,23.8,29.92,SSW,202,1.0,-999.0,76,0.00,,,0.00,MetarLogicWeatherSta,2013-02-13 02:55:00,
2013-02-12 22:00:00,30.4,24.0,29.92,SSW,202,0.0,-999.0,76,0.00,,,0.00,MetarLogicWeatherSta,2013-02-13 03:00:00,
2013-02-12 22:05:00,30.4,24.0,29.92,SSE,157,0.0,-999.0,76,0.00,,,0.00,MetarLogicWeatherSta,2013-02-13 03:05:00,
2013-02-12 22:10:00,30.4,24.1,29.92,SSW,202,0.0,-999.0,77,0.00,,,0.00,MetarLogicWeatherSta,2013-02-13 03:10:00,
2013-02-12 22:15:00,30.1,24.1,29.91,South,180,0.0,-999.0,78,0.00,,,0.00,MetarLogicWeatherSta,2013-02-13 03:15:00,
2013-02-12 22:20:00,30.3,24.4,29.91,South,180,0.0,-999.0,78,0.00,,,0.00,MetarLogicWeatherSta,2013-02-13 03:20:00,
2013-02-12 22:25:00,30.0,24.2,29.90,South,180,0.0,-999.0,78,0.00,,,0.00,MetarLogicWeatherSta,2013-02-13 03:25:00,
2013-02-12 22:30:00,30.0,24.4,29.90,South,180,1.0,-999.0,79,0.00,,,0.00,MetarLogicWeatherSta,2013-02-13 03:30:00,
2013-02-12 22:35:00,29.9,24.5,29.91,South,180,0.0,-999.0,80,0.00,,,0.00,MetarLogicWeatherSta,2013-02-13 03:35:00,
2013-02-12 22:40:00,29.6,24.5,29.90,South,180,0.0,-999.0,80,0.00,,,0.00,MetarLogicWeatherSta,2013-02-13 03:40:00,
2013-02-12 22:45:00,29.9,24.8,29.90,SSW,202,0.0,-999.0,81,0.00,,,0.00,MetarLogicWeatherSta,2013-02-13 03:45:00,
2013-02-12 22:50:00,29.9,24.8,29.90,South,180,0.0,-999.0,81,0.00,,,0.00,MetarLogicWeatherSta,2013-02-13 03:50:00,
2013-02-12 22:55:00,29.8,24.6,29.91,SSE,157,0.0,-999.0,80,0.00,,,0.00,MetarLogicWeatherSta,2013-02-13 03:55:00,
2013-02-12 23:00:00,29.6,24.6,29.91,South,180,0.0,-999.0,81,0.00,,,0.00,MetarLogicWeatherSta,2013-02-13 04:00:00,
2013-02-12 23:05:00,29.8,24.9,29.91,SSE,157,0.0,-999.0,81,0.00,,,0.00,MetarLogicWeatherSta,2013-02-13 04:05:00,
2013-02-12 23:10:00,29.7,24.9,29.91,South,180,0.0,-999.0,82,0.00,,,0.00,MetarLogicWeatherSta,2013-02-13 04:10:00,
2013-02-12 23:15:00,29.5,24.6,29.90,SSE,157,0.0,-999.0,81,0.00,,,0.00,MetarLogicWeatherSta,2013-02-13 04:15:00,
2013-02-12 23:20:00,29.6,24.9,29.90,SSE,157,0.0,-999.0,82,0.00,,,0.00,MetarLogicWeatherSta,2013-02-13 04:20:00,
2013-02-12 23:25:00,29.8,25.1,29.90,South,180,0.0,-999.0,82,0.00,,,0.00,MetarLogicWeatherSta,2013-02-13 04:25:00,
2013-02-12 23:30:00,29.5,24.8,29.90,SSE,157,0.0,-999.0,82,0.00,,,0.00,MetarLogicWeatherSta,2013-02-13 04:30:00,
2013-02-12 23:35:00,29.5,24.9,29.91,South,180,0.0,-999.0,82,0.00,,,0.00,MetarLogicWeatherSta,2013-02-13 04:35:00,
2013-02-12 23:40:00,29.6,24.9,29.90,South,180,0.0,-999.0,82,0.00,,,0.00,MetarLogicWeatherSta,2013-02-13 04:40:00,
2013-02-12 23:45:00,29.4,24.9,29.90,SSE,157,0.0,-999.0,83,0.00,,,0.00,MetarLogicWeatherSta,2013-02-13 04:45:00,
2013-02-12 23:50:00,29.3,24.8,29.90,South,180,0.0,-999.0,83,0.00,,,0.00,MetarLogicWeatherSta,2013-02-13 04:50:00,
2013-02-12 23:56:00,29.3,24.9,29.90,South,180,0.0,-999.0,83,0.00,,,0.00,MetarLogicWeatherSta,2013-02-13 04:56:00,